SCP
0 0 0 0 0 0 0 0 0 0 0 0 0 0 0 0 0 0 0 0 0 0 0 0 0 0 0 0 0 0 0 0 0 0 0 0 0 0 0 0 0 0 0 0
0 0 0 0 0 0 0 0 0 0 0 0 0 0 0 0 0 0 0 0 0 0 0 0 0 0 1 1 0 0 0 0 0 0 0 0 0 0 0 0 0 0 0 0
0 0 0 0 0 0 0 0 0 0 0 0 0 0 0 0 0 0 0 0 0 0 0 0 0 1 1 1 1 1 0 0 0 0 0 0 0 0 0 0 0 0 0 0
0 0 0 0 0 0 0 0 0 0 0 0 0 0 0 0 0 0 0 0 0 0 0 0 0 1 1 1 1 1 1 0 0 0 0 0 0 0 0 0 0 0 0 0
0 0 0 0 0 0 0 0 0 0 0 0 0 0 0 0 0 0 0 0 0 0 0 0 0 1 1 1 1 1 1 0 0 0 0 0 0 0 0 0 0 0 0 0
0 0 0 0 0 0 0 0 0 0 0 0 0 0 0 0 0 0 0 0 0 0 0 0 0 1 1 1 1 1 1 0 0 0 0 0 0 0 0 0 0 0 0 0
0 0 0 0 0 0 0 0 0 0 0 0 0 0 0 0 0 0 0 0 0 0 0 0 0 1 1 1 1 1 1 0 0 0 0 0 0 0 0 0 0 0 0 0
0 0 0 0 0 0 0 0 0 0 0 0 0 0 0 0 0 0 0 0 0 0 0 0 1 1 1 1 1 1 1 1 0 0 0 0 0 0 0 0 0 0 0 0
0 0 0 0 0 0 0 0 0 0 0 0 0 0 0 0 0 0 0 0 0 0 1 1 1 1 1 1 1 1 1 1 1 1 0 0 0 0 0 0 0 0 0 0
0 0 0 0 0 0 0 0 0 0 0 0 0 0 0 0 0 0 0 0 0 1 1 1 1 1 1 1 1 1 1 1 1 1 0 0 0 0 0 0 0 0 0 0
0 0 0 0 0 0 0 0 0 0 0 0 0 0 0 0 0 0 0 0 1 1 1 1 1 1 1 1 1 1 1 1 1 1 0 0 0 0 0 0 0 0 0 0
0 0 0 0 0 0 0 0 0 0 0 0 0 0 0 0 0 1 1 1 1 1 1 1 1 1 1 1 1 1 1 1 1 1 0 0 1 1 1 1 1 1 1 1
0 0 0 0 0 0 0 0 0 0 0 0 0 0 0 0 1 1 1 1 1 1 1 1 1 1 1 1 1 1 1 1 1 1 1 1 1 1 1 1 1 1 1 1
0 0 0 0 0 0 0 0 0 0 0 0 0 0 0 0 1 1 1 1 1 1 1 1 1 1 1 1 1 1 1 1 1 1 1 1 1 1 1 1 1 1 1 1
0 0 0 0 0 0 0 0 0 0 0 0 0 0 0 0 1 1 1 1 1 1 1 1 1 1 1 1 1 1 1 1 1 2 2 1 1 1 1 1 1 1 1 1
0 0 0 0 0 0 0 0 0 0 0 0 0 0 0 1 1 1 1 1 1 1 1 1 1 1 1 1 1 1 1 1 1 2 2 2 1 1 1 1 1 1 1 1
0 0 0 0 0 0 0 0 0 0 0 0 0 0 1 1 1 1 1 1 1 1 1 1 1 1 1 1 1 1 1 1 1 1 1 2 2 2 2 2 2 1 1 1
0 0 0 0 0 0 0 0 0 0 0 0 0 1 1 1 1 1 1 1 1 1 1 1 1 1 1 1 1 1 1 1 1 1 1 2 2 2 2 2 2 1 1 1
0 0 0 0 0 0 0 0 0 0 0 0 1 1 1 1 1 1 1 1 1 1 1 1 1 1 1 1 1 1 1 1 1 2 2 2 2 2 2 2 2 1 1 1
0 0 0 0 0 0 0 0 0 0 0 0 1 1 1 1 1 1 1 1 1 1 1 1 1 2 2 2 2 1 1 2 2 2 2 2 2 2 2 1 1 1 1 1
0 0 0 0 0 0 0 0 0 0 0 0 1 1 1 1 1 1 1 1 1 1 1 2 2 2 2 2 1 1 1 1 1 2 2 2 2 2 1 1 1 1 1 1
0 0 0 0 0 0 0 0 0 0 0 1 1 1 1 1 1 1 1 1 1 1 1 2 2 2 2 1 1 1 1 1 1 1 1 1 1 1 1 1 1 1 1 1
0 0 0 0 0 0 0 0 0 0 1 1 1 1 1 1 1 1 1 1 1 1 1 1 2 2 1 1 1 1 1 1 1 1 1 1 1 1 1 1 1 1 1 1
0 0 0 0 0 0 0 0 0 0 1 1 1 1 1 1 1 1 1 0 0 1 1 1 1 1 1 1 1 1 1 1 1 1 1 1 1 1 1 1 1 1 1 1
0 0 0 0 0 0 0 0 0 0 1 1 1 1 1 1 1 0 0 0 0 0 1 1 1 1 1 1 1 1 1 1 1 1 1 1 1 1 1 1 1 1 1 1
0 0 0 0 0 0 0 0 0 0 0 0 0 0 1 0 0 0 0 0 0 0 1 1 1 1 1 1 1 1 1 1 1 1 1 1 1 1 1 1 1 1 1 1
Wind_Speed
1 3 3 6 6 8 7 4 4 6 5 3 4 5 11 12 11 10 9 9 10 11 10 10 11 11 10 8 7 7 7 6 4 3 2 2 1 1 1 1 3 3 3 4
2 5 10 7 5 4 4 4 5 3 4 4 3 2 7 10 12 12 12 10 11 10 9 10 10 10 10 10 8 8 8 6 5 4 3 2 2 2 1 1 2 3 3 4
7 8 6 5 5 5 6 7 7 5 2 4 4 1 2 5 7 8 10 11 11 14 13 13 12 11 11 10 10 9 8 6 5 4 2 2 2 1 0 0 1 3 3 3
6 8 6 6 7 7 6 7 7 5 4 2 4 3 6 6 6 9 11 10 12 12 12 12 13 13 13 12 10 8 8 7 6 5 4 3 3 2 2 2 2 2 3 3
6 5 6 7 8 7 8 6 5 4 4 1 0 4 6 3 6 10 11 12 12 12 13 14 14 14 13 12 10 9 8 7 7 6 6 5 3 2 2 1 2 2 2 3
8 6 6 7 7 7 5 2 4 4 4 0 4 4 6 7 11 10 10 11 11 12 13 13 13 12 11 11 10 9 9 8 7 7 6 6 5 4 3 2 2 2 2 2
6 7 5 3 3 4 2 5 3 4 3 5 3 3 9 10 10 12 12 12 12 12 13 13 13 13 12 12 12 10 10 9 8 7 7 6 6 6 5 4 3 3 2 2
4 7 7 5 8 7 5 9 8 5 4 4 3 4 8 8 8 9 9 10 10 11 12 13 14 14 13 14 12 11 11 9 9 8 7 6 6 4 4 4 4 4 3 3
7 9 7 6 6 9 5 4 9 8 3 1 4 4 6 2 3 5 7 7 10 12 13 13 12 12 12 13 13 12 12 9 9 9 8 6 6 5 5 4 4 3 3 3
8 5 7 6 1 2 8 8 6 6 6 4 4 3 4 4 3 5 7 9 8 9 10 11 10 11 11 10 10 10 11 10 9 8 7 7 6 5 5 4 4 4 4 3
6 5 6 2 5 7 3 4 6 5 6 7 3 7 5 6 5 7 8 7 7 7 9 10 10 10 10 9 9 9 9 8 8 8 7 7 6 6 5 4 5 4 4 4
3 6 4 8 7 6 6 7 8 6 4 5 5 7 4 6 6 7 7 6 6 7 8 9 10 9 9 9 9 10 10 9 9 8 7 7 6 5 5 5 5 4 4 4
2 5 1 7 7 4 1 3 5 7 5 5 5 5 2 3 4 6 8 8 7 7 7 6 7 8 9 9 9 10 10 10 9 8 7 7 6 6 6 6 5 4 4 4
4 4 6 8 7 4 3 3 4 7 5 4 6 6 3 4 6 5 6 8 8 8 7 6 6 6 7 7 9 10 9 9 8 8 8 8 8 7 6 5 4 4 4 4
6 3 2 4 4 2 2 4 3 4 8 8 8 8 9 9 9 8 8 9 9 8 6 6 6 6 6 6 6 6 6 7 8 8 8 8 7 5 5 4 4 4 4 4
5 2 2 2 2 2 2 3 2 2 3 6 5 4 5 5 5 6 7 9 10 8 7 6 6 6 6 7 6 6 6 7 7 8 8 7 6 5 5 5 4 4 3 3
2 3 3 2 4 3 3 3 2 1 1 5 5 5 4 5 6 7 8 9 9 9 8 8 9 8 7 6 6 7 7 7 7 6 6 6 6 6 6 5 4 4 3 2
4 3 2 0 3 3 7 3 3 5 3 3 4 4 5 7 6 5 6 8 8 8 8 7 6 6 6 6 5 5 5 6 6 6 5 5 6 6 5 5 5 4 3 3
6 6 3 3 2 4 5 4 1 4 3 3 6 6 5 6 7 3 1 4 6 7 6 6 6 6 5 5 5 5 4 5 5 5 5 5 5 5 5 5 5 4 3 2
4 5 5 3 3 5 6 6 1 7 2 3 5 6 6 6 5 2 1 3 5 5 5 5 5 6 5 4 5 5 5 5 4 4 4 4 4 5 5 5 4 3 3 3
3 2 3 4 3 5 6 6 3 4 5 2 3 5 4 3 4 3 2 3 4 4 5 6 6 5 5 5 6 6 4 4 4 3 3 3 3 3 4 4 3 3 3 3
3 2 3 3 3 6 5 3 3 4 3 2 3 4 5 4 5 5 5 5 4 4 4 5 5 4 3 4 6 5 3 2 2 3 3 2 2 2 2 3 3 3 4 3
1 4 4 5 5 4 2 1 1 3 4 3 3 4 7 6 5 4 4 4 4 4 4 4 6 5 3 3 4 3 2 2 3 3 2 2 2 2 1 2 3 2 2 2
4 2 2 1 2 3 3 4 5 5 5 3 4 5 6 6 5 4 3 3 3 4 3 4 6 5 3 3 3 2 2 2 3 3 2 2 2 1 1 0 1 2 3 3
3 2 1 1 3 4 5 3 3 4 5 5 4 4 5 6 5 4 3 2 3 3 3 4 5 5 3 3 3 2 2 3 3 2 2 2 1 1 1 1 1 1 2 3
3 4 4 6 5 2 3 2 2 3 2 3 4 4 3 4 4 3 2 2 3 3 3 3 4 4 4 4 3 3 3 3 4 2 2 2 2 1 1 1 1 3 1 1
Wind_Direction
286 95 222 223 198 182 178 188 218 230 209 160 188 179 176 178 176 178 182 183 182 184 182 172 167 161 157 157 156 156 154 160 150 138 137 134 147 159 154 172 171 168 169 160
12 248 231 220 213 183 173 191 232 255 170 146 157 191 185 184 188 183 185 191 189 183 176 173 169 165 166 168 166 161 164 166 165 161 161 162 157 168 175 187 183 182 173 172
209 237 232 217 216 205 215 200 207 206 106 60 96 349 237 213 199 190 189 191 187 185 182 179 174 174 170 173 173 170 167 166 168 161 139 118 87 55 56 171 192 198 183 172
237 243 240 237 227 194 233 222 200 184 134 190 151 197 251 211 208 202 197 195 193 189 183 180 176 176 178 179 173 165 167 167 169 161 155 156 162 178 202 194 190 192 187 173
242 225 220 229 230 202 217 215 183 173 142 109 138 150 259 202 214 218 207 200 196 191 183 182 180 180 178 175 172 170 167 173 176 170 172 169 179 190 192 176 162 174 182 181
245 247 214 217 231 215 205 78 48 53 78 228 230 165 248 207 211 215 211 206 199 193 188 185 179 172 173 174 174 172 171 180 180 177 176 177 179 181 175 185 180 187 189 189
287 282 261 210 242 267 139 98 39 0 12 249 239 185 240 224 205 201 203 203 196 189 184 179 173 172 175 177 178 177 176 182 184 181 184 186 187 186 188 194 192 187 185 195
220 270 253 218 195 202 198 146 160 187 215 269 291 225 250 227 203 195 190 189 183 180 177 178 178 176 178 179 178 178 181 185 184 185 189 190 191 188 193 196 192 193 193 199
194 243 259 236 208 168 175 181 168 142 170 228 265 274 306 258 179 181 175 168 180 179 172 172 174 174 176 180 183 182 183 185 188 189 187 190 192 191 195 198 193 195 198 196
179 235 268 253 224 221 167 160 109 125 159 219 266 243 233 233 189 170 170 175 177 177 171 168 173 177 178 177 179 182 182 185 187 189 190 192 193 195 198 192 194 195 199 188
172 191 281 300 201 211 190 142 126 133 160 161 217 259 222 185 185 165 166 159 160 165 166 167 171 177 173 168 172 180 182 182 187 190 190 191 192 193 193 198 199 196 196 187
179 149 235 251 245 209 182 177 148 154 209 165 166 257 251 173 163 156 159 162 164 153 154 169 173 169 167 173 175 179 185 187 192 192 189 193 192 188 193 201 202 196 198 196
123 117 118 325 330 351 145 175 157 143 136 157 165 243 249 166 145 149 155 156 156 148 149 156 163 166 173 178 180 182 192 193 192 187 186 190 191 190 196 200 198 195 192 195
93 109 160 198 225 250 263 240 168 133 153 188 203 199 216 184 173 161 149 148 146 143 148 157 165 167 170 178 182 184 193 190 186 183 183 190 195 196 197 194 190 183 180 182
78 108 185 220 232 228 252 260 225 177 180 179 205 192 207 198 184 174 155 143 137 138 146 160 169 169 166 172 181 181 189 188 184 179 184 192 190 185 179 178 182 180 182 185
50 83 35 335 333 5 335 289 248 216 169 162 158 210 222 189 157 150 151 144 145 154 162 163 164 166 170 174 183 181 193 190 176 176 187 186 178 177 180 182 181 178 181 184
24 75 62 302 318 28 313 273 195 142 134 150 176 206 162 137 153 167 164 155 159 161 164 171 177 173 175 175 174 180 187 174 164 176 181 177 176 178 183 180 175 181 181 173
150 102 123 133 40 213 241 273 101 94 58 92 123 152 148 151 161 161 157 160 163 158 160 165 176 170 166 162 165 167 160 155 163 172 182 180 176 182 183 177 181 182 174 176
160 145 132 126 166 270 298 316 98 114 15 41 112 111 99 108 86 55 106 138 151 149 150 147 148 149 150 148 147 136 140 148 155 175 185 187 182 181 180 185 187 179 167 175
80 117 127 136 157 219 255 293 330 95 37 337 104 121 121 97 100 233 233 111 121 128 132 131 130 122 124 137 135 135 147 141 152 177 180 176 177 180 185 187 178 171 172 190
24 50 133 163 199 251 269 298 39 109 211 261 115 122 112 123 168 187 130 105 113 119 122 126 123 130 143 143 133 132 142 161 178 158 142 148 162 178 177 168 168 165 171 175
189 165 172 150 184 247 301 15 102 195 191 148 97 101 97 104 101 100 99 104 107 113 116 122 121 124 122 125 129 133 154 178 143 124 119 129 139 156 145 145 161 162 165 176
197 192 182 175 205 250 337 119 172 132 119 111 98 98 104 101 99 93 90 98 107 111 119 118 120 113 93 94 111 130 178 136 115 116 127 121 111 117 124 153 159 153 165 178
316 1 70 50 287 316 5 46 46 74 91 95 103 103 97 98 94 89 88 85 96 100 109 112 111 111 106 104 109 140 149 119 124 133 127 100 98 83 70 98 161 162 178 189
272 354 10 290 281 351 351 18 51 43 53 61 65 82 99 104 103 112 121 129 123 118 117 117 122 128 136 131 141 166 152 139 137 136 130 120 112 111 91 66 71 181 211 208
239 205 194 227 230 187 261 310 57 65 60 79 74 57 57 98 110 109 121 146 134 129 124 120 131 148 158 154 158 175 172 152 149 155 155 149 146 143 146 134 48 24 24 1